{"data":{"norad_id":45237,"intl_designator":"2020-012BM","name":"STARLINK-1270","alt_names":[],"object_type":"PAYLOAD","status":"ACTIVE","operator":null,"country":"US","launch_date":"2020-02-17","launch_site_code":"AFETR","launch_vehicle":null,"mission":null,"orbit_class":"UNKNOWN","rcs_meters":null,"size_class":null,"mass_kg":null,"dimensions":null,"purposes":["comms"],"wikipedia_slug":null,"has_3d_model":false,"image_url":null,"decayed_at":null,"tle_current":{"epoch":"2026-09-20T04:07:38.154432Z","epoch_age_seconds":46531,"freshness":"FRESH","line1":"1 45237U 20012BM  26263.17196938  .00081549  00000+0  38643-3 0  9992","line2":"2 45237  53.0349 112.9283 0004485 147.8077 212.3219 15.82285644366121","mean_motion":15.82285644,"eccentricity":0.0004485,"inclination_deg":53.0349,"raan_deg":112.9283,"arg_perigee_deg":147.8077,"mean_anomaly_deg":212.3219,"bstar":0.00038643,"rev_number":36612,"period_min":91.007588007921,"perigee_km":320.97272807924,"apogee_km":326.98452579661,"semimajor_km":6702.1156269379,"source":"CELESTRAK","updated_at":"2026-09-20T09:00:38.229597Z"}}}